Location: Ariel
(45.9570°N, 122.5700°W)
Time: 18:00:01
(UTC-07:00)

Transit 4A - Pass Details

Date: 25 July 2019
Orbit: 863 x 981 km, 66.8° (Epoch: 24 August)

Event Time Altitude Azimuth Distance (km) Brightness Sun altitude
Rises 08:49:30 0° 329° (NNW) 3,682 10.7 29.9°
Reaches altitude 10° 08:52:30 10° 341° (NNW) 2,721 10.2 30.4°
Maximum altitude 08:57:55 28° 39° (NE) 1,706 10.1 31.4°
Drops below altitude 10° 09:03:11 10° 97° (E) 2,652 11.8 32.3°
Sets 09:06:03 0° 109° (ESE) 3,572 12.0 32.8°
